Helicity
15 -44 -33 31 -6 27 -21 106 133 108 92 39 23 16 8 16 14 15 -4 -0 -24 15
74 14 31 41 36 32 -46 16 170 114 82 50 42 13 39 6 29 8 12 14 -8 -6
125 82 107 -12 67 39 16 -17 108 98 53 51 23 15 36 3 23 26 18 6 35 13
134 112 89 122 26 81 -28 50 106 131 121 91 39 17 27 -3 -34 31 27 -5 7 53
167 140 102 97 120 102 74 70 87 142 105 88 75 36 37 30 -24 19 13 -0 -11 11
153 150 120 108 109 126 122 129 112 106 120 116 91 48 46 53 23 -21 25 15 12 8
155 158 150 145 130 173 145 133 113 101 111 116 108 68 50 65 63 24 -5 11 3 -9
129 138 150 142 152 139 174 147 129 117 106 112 111 90 72 62 71 71 38 7 20 17
150 160 127 142 151 159 146 147 140 112 102 116 116 106 100 95 63 69 67 26 -5 -7
195 199 185 151 145 159 158 163 145 126 117 109 120 105 99 132 107 73 60 57 42 9
213 240 217 178 148 158 171 159 155 136 121 127 129 128 89 130 152 117 78 56 54 61
228 233 261 229 178 172 181 165 145 138 115 119 128 150 137 136 139 131 121 89 58 70
203 225 247 254 221 194 191 178 171 132 125 137 143 159 180 195 131 126 144 114 61 48
172 198 227 207 191 171 171 162 139 109 107 116 141 155 187 206 173 129 151 122 91 59
Wind_Speed
41 79 74 63 66 55 55 41 33 29 28 29 34 34 36 34 36 37 39 42 42 38
31 38 70 70 64 60 62 42 16 22 21 27 32 37 35 39 38 35 37 40 44 42
42 36 30 59 64 66 62 64 7 16 20 25 41 40 34 39 35 35 35 39 36 40
35 38 37 32 43 27 73 56 25 13 2 15 34 43 35 37 40 34 32 38 40 36
37 36 37 39 27 26 24 64 39 22 21 3 9 32 36 31 37 27 31 30 42 50
40 38 39 40 40 33 29 29 33 27 20 17 8 18 27 26 28 37 23 26 28 38
41 40 38 36 40 34 34 34 27 28 27 21 14 14 22 20 20 26 35 27 31 34
34 39 39 37 37 39 39 33 31 27 25 23 18 17 20 20 19 21 28 37 31 32
33 33 35 37 37 39 38 38 34 33 29 26 24 24 27 22 23 23 30 44 53 59
35 36 38 34 37 37 39 37 37 35 33 32 30 30 33 32 25 26 30 36 37 45
40 38 36 38 37 37 37 38 38 36 36 33 32 32 35 34 34 29 33 36 36 33
42 37 36 40 42 37 36 36 37 37 36 37 34 33 37 32 28 37 36 38 39 29
37 41 38 35 34 33 35 36 36 37 38 38 37 35 36 36 30 34 29 29 50 56
38 44 37 32 30 30 32 34 36 36 39 39 38 38 36 37 32 29 25 25 25 38
Wind_Direction
172 206 217 222 214 225 188 160 146 133 127 129 143 145 146 140 155 154 168 200 212 220
190 179 232 228 231 235 221 258 128 132 122 133 143 153 143 167 163 154 157 166 195 204
192 194 239 193 240 234 235 224 117 134 133 136 166 164 150 171 153 150 152 166 153 168
209 201 201 245 187 248 207 250 267 287 92 130 160 176 161 172 181 161 154 173 190 161
226 213 208 205 225 219 224 248 264 264 284 231 143 166 171 166 176 157 164 164 184 214
230 224 208 206 204 204 212 250 257 264 260 272 251 169 171 169 170 183 164 167 169 183
219 216 214 216 207 216 206 208 229 252 263 258 245 197 179 176 175 179 189 181 187 189
216 228 232 225 226 213 210 213 216 230 242 247 232 212 196 191 187 186 189 194 192 194
201 220 224 223 229 230 222 212 216 215 222 225 218 208 198 198 196 193 193 201 210 220
192 204 207 221 219 228 221 231 218 217 220 219 218 209 202 201 202 199 198 199 200 206
193 197 207 208 211 217 232 227 233 229 223 226 227 218 209 208 206 206 202 204 204 204
196 198 201 203 206 216 225 231 230 235 231 224 232 224 214 219 218 210 210 209 208 207
202 198 200 205 208 222 225 224 238 238 241 243 246 240 223 219 225 215 221 220 214 216
214 201 203 216 220 223 226 237 237 242 252 252 247 253 233 225 234 231 250 240 230 211